Weather History for Chattanooga, TN

Change the Weather History Date:

Sunday, November 14, 2010

  Actual Average Record
Temperature  
Mean Temperature 52 °F 52 °F  
Max Temperature 59 °F 63 °F 79 °F (1999)
Min Temperature 45 °F 41 °F 18 °F (1969)
Degree Days  
Heating Degree Days 13 13  
Month to date heating degree days 174 156  
Since 1 July heating degree days 279 328  
Cooling Degree Days 0 0  
Month to date cooling degree days 0 0  
Year to date cooling degree days 2393 1737  
Growing Degree Days 2 (Base 50)    
Moisture  
Dew Point 46 °F    
Average Humidity 80    
Maximum Humidity 89    
Minimum Humidity 71    
Precipitation  
Precipitation 0.05 in 0.17 in 2.47 in (1929)
Month to date precipitation 0.78 2.04  
Year to date precipitation 33.26 44.62  
Snow  
Snow 0.00 in 0.00 in - ()
Month to date snowfall 0.0 0.0  
Since 1 July snowfall 0.0 0.0  
Since 1 September snowfall 0.0 0.0  
Snow Depth 0.00 in    
Sea Level Pressure  
Sea Level Pressure 30.04 in    
Wind  
Wind Speed 1 mph (WNW)    
Max Wind Speed 7 mph    
Max Gust Speed 8 mph    
Visibility 9 miles    
Events Fog , Rain    
T = Trace of Precipitation, MM = Missing Value Source: NWS Daily Summary

Daily Weather History Graph

Daily Weather History Graph

Search for Another Location

Airport:

Trip Planner

Search our weather history database for the weather conditions in past years. The results will help you decide how hot, cold, wet, or windy it might be!

Date:

Astronomy

Nov. 14, 2010 Rise Set
Actual Time 7:14 AM EST 5:35 PM EST
Civil Twilight 6:47 AM EST 6:02 PM EST
Nautical Twilight 6:16 AM EST 6:33 PM EST
Astronomical Twilight 5:46 AM EST 7:03 PM EST
Moon 1:40 PM EST (11/14) 12:37 AM EST (11/14)
Length of Visible Light 11h 15m
Length of Day
10h 21m
First Quarter, 60% of the Moon is Illuminated
Nov 14
First Quarter
Nov 21
Full
Nov 28
Last Quarter
Dec 5
New
Dec 13
First Quarter

Hourly Weather History & Observations

Time (EST) Temp. Dew Point Humidity Pressure Visibility Wind Dir Wind Speed Gust Speed Precip Events Conditions
12:53 AM 46.0 °F 39.0 °F 76% 30.06 in 10.0 mi Calm Calm - N/A   Scattered Clouds
1:53 AM 46.0 °F 39.0 °F 76% 30.05 in 10.0 mi Calm Calm - N/A   Mostly Cloudy
2:53 AM 46.0 °F 41.0 °F 83% 30.05 in 10.0 mi Calm Calm - N/A   Mostly Cloudy
3:53 AM 48.9 °F 39.9 °F 71% 30.04 in 10.0 mi Calm Calm - N/A   Overcast
4:53 AM 50.0 °F 42.1 °F 74% 30.04 in 10.0 mi Calm Calm - N/A   Overcast
5:53 AM 50.0 °F 44.1 °F 80% 30.05 in 10.0 mi Calm Calm - 0.00 in Rain Light Rain
6:53 AM 50.0 °F 46.0 °F 86% 30.04 in 10.0 mi Calm Calm - 0.00 in   Mostly Cloudy
7:53 AM 51.1 °F 45.0 °F 80% 30.05 in 10.0 mi Calm Calm - N/A   Mostly Cloudy
8:53 AM 52.0 °F 46.0 °F 80% 30.07 in 10.0 mi Calm Calm - N/A   Overcast
9:53 AM 53.1 °F 44.1 °F 71% 30.08 in 7.0 mi Calm Calm - 0.00 in   Mostly Cloudy
10:21 AM 51.8 °F 46.4 °F 82% 30.09 in 5.0 mi Calm Calm - 0.04 in Rain Light Rain
10:53 AM 52.0 °F 46.0 °F 80% 30.08 in 10.0 mi Calm Calm - 0.05 in Fog Shallow Fog
10:57 AM 53.6 °F 46.4 °F 77% 30.08 in 10.0 mi Calm Calm - N/A Fog Shallow Fog
11:53 AM 53.1 °F 46.9 °F 80% 30.06 in 9.0 mi Calm Calm - N/A   Mostly Cloudy
12:53 PM 54.0 °F 48.0 °F 80% 30.04 in 10.0 mi SSE 4.6 mph - N/A   Mostly Cloudy
1:22 PM 53.6 °F 48.2 °F 82% 30.04 in 10.0 mi Calm Calm - N/A   Overcast
1:53 PM 54.0 °F 48.0 °F 80% 30.03 in 10.0 mi SSW 4.6 mph - N/A   Overcast
2:53 PM 55.9 °F 48.0 °F 75% 30.01 in 10.0 mi SSW 4.6 mph - N/A   Mostly Cloudy
3:53 PM 57.9 °F 48.9 °F 72% 30.00 in 10.0 mi Calm Calm - N/A   Mostly Cloudy
4:53 PM 57.9 °F 50.0 °F 75% 30.01 in 10.0 mi Calm Calm - N/A   Mostly Cloudy
5:53 PM 57.0 °F 51.1 °F 81% 30.01 in 10.0 mi Calm Calm - N/A   Mostly Cloudy
6:39 PM 55.4 °F 50.0 °F 82% 30.01 in 7.0 mi Calm Calm - N/A   Overcast
6:53 PM 55.9 °F 51.1 °F 84% 30.01 in 8.0 mi Calm Calm - N/A   Overcast
7:53 PM 55.0 °F 50.0 °F 83% 30.01 in 7.0 mi WNW 3.5 mph - N/A   Mostly Cloudy
8:53 PM 52.0 °F 48.0 °F 86% 30.01 in 9.0 mi Calm Calm - N/A   Mostly Cloudy
9:53 PM 52.0 °F 48.9 °F 89% 30.01 in 10.0 mi Calm Calm - N/A   Mostly Cloudy
10:53 PM 53.1 °F 48.0 °F 83% 30.01 in 10.0 mi North 4.6 mph - N/A   Mostly Cloudy
11:01 PM 53.6 °F 48.2 °F 82% 30.01 in 10.0 mi North 4.6 mph - N/A   Mostly Cloudy
11:53 PM 52.0 °F 46.9 °F 83% 30.00 in 10.0 mi NW 4.6 mph - N/A   Overcast